Sigfox identifier Datetime Temperature Humidity SNR
003C0732 2019-02-20 13:41:48 20.8 24 23.1
003C0732 2019-02-20 13:10:41 20.8 25 23.1
003C0732 2019-02-20 12:39:34 20.8 25 22.2
003C0732 2019-02-20 12:08:28 20.8 26 22.2
003C0732 2019-02-20 11:37:20 20.7 26 21.2
003C0732 2019-02-20 11:06:12 20.7 26 19.7
003C0732 2019-02-20 10:35:05 20.7 26 19.7
003C0732 2019-02-20 10:03:58 20.7 26 19.8
003C0732 2019-02-20 09:32:53 20.7 26 19.7
003C0732 2019-02-20 09:01:46 20.7 26 19.8
003C0732 2019-02-20 08:30:39 20.7 26 19.3
003C0732 2019-02-20 07:59:30 20.7 26 19.2
003C0732 2019-02-20 07:28:23 20.7 26 16.4
003C0732 2019-02-20 06:57:15 20.7 26 16.9
003C0732 2019-02-20 06:26:07 20.7 26 16.6
003C0732 2019-02-20 05:54:59 20.7 26 16
003C0732 2019-02-20 05:23:50 20.8 26 16
003C0732 2019-02-20 04:52:42 20.7 26 16.3
003C0732 2019-02-20 04:21:36 21 26 15.7
003C0732 2019-02-20 04:20:23 20.8 26 15.7
003C0732 2019-02-20 03:49:18 20.7 26 15.7
003C0732 2019-02-20 03:18:09 20.8 26 15.8
003C0732 2019-02-20 02:47:02 20.8 26 15.8
003C0732 2019-02-20 02:15:54 20.8 26 15.5
003C0732 2019-02-20 01:44:46 20.8 26 18.8
003C0732 2019-02-20 01:13:38 20.8 26 18.8
003C0732 2019-02-20 00:42:31 20.8 26 18.7
003C0732 2019-02-20 00:11:24 20.8 26 18.9
003C0732 2019-02-19 23:40:17 20.8 26 19.2
003C0732 2019-02-19 23:09:10 20.8 26 18.9
003C0732 2019-02-19 22:38:04 20.8 26 20.6
003C0732 2019-02-19 22:06:54 20.9 26 20.6
003C0732 2019-02-19 21:35:45 20.9 26 20.6
003C0732 2019-02-19 21:04:38 20.9 26 20.9
003C0732 2019-02-19 20:33:30 20.9 26 21
003C0732 2019-02-19 20:02:25 20.9 26 20.9
003C0732 2019-02-19 19:31:16 20.9 26 21
003C0732 2019-02-19 19:00:11 20.9 26 21.1
003C0732 2019-02-19 18:29:01 21 26 21.2
003C0732 2019-02-19 17:57:50 21 26 21.3
003C0732 2019-02-19 17:26:41 21 26 21.5
003C0732 2019-02-19 16:55:36 21 26 21.8
003C0732 2019-02-19 16:24:24 21 26 22
003C0732 2019-02-19 15:53:15 21 26 22
003C0732 2019-02-19 15:22:06 20.9 26 22.2
003C0732 2019-02-19 14:50:58 21 26 22.2
003C0732 2019-02-19 14:19:49 20.9 26 22.3
003C0732 2019-02-19 13:48:41 20.9 26 21.4
003C0732 2019-02-19 13:17:33 20.9 26 21.5
003C0732 2019-02-19 12:46:24 20.9 25 21.6
003C0732 2019-02-19 12:15:18 20.9 25 21.7
003C0732 2019-02-19 11:44:09 20.9 25 21.6
003C0732 2019-02-19 11:13:02 20.9 25 21.8
003C0732 2019-02-19 10:41:54 20.8 25 20.9
003C0732 2019-02-19 10:10:46 20.8 25 21.2
003C0732 2019-02-19 09:39:37 20.8 24 21.2
003C0732 2019-02-19 09:08:29 20.7 24 21
003C0732 2019-02-19 08:37:21 20.7 24 21.1
003C0732 2019-02-19 08:06:12 20.8 24 21.2
003C0732 2019-02-19 07:35:04 20.8 24 21
003C0732 2019-02-19 07:03:57 20.7 24 20.9
003C0732 2019-02-19 06:32:50 20.7 24 20.8
003C0732 2019-02-19 06:01:43 20.7 24 20.8
003C0732 2019-02-19 05:30:36 20.8 23 20.9
003C0732 2019-02-19 04:59:29 20.7 23 20.8
003C0732 2019-02-19 04:28:20 20.8 23 20.6
003C0732 2019-02-19 03:57:12 20.7 23 21.7
003C0732 2019-02-19 03:26:05 20.8 23 22.5
003C0732 2019-02-19 02:54:59 21 23 22.5
003C0732 2019-02-19 02:53:46 20.7 23 22.5
003C0732 2019-02-19 02:22:40 20.8 23 22.5
003C0732 2019-02-19 01:51:33 20.7 23 22.4
003C0732 2019-02-19 01:20:27 20.7 23 22.3
003C0732 2019-02-19 00:49:20 20.8 23 22.4
003C0732 2019-02-19 00:18:13 20.8 22 22.5
003C0732 2019-02-18 23:47:05 20.8 22 22.9
003C0732 2019-02-18 23:15:58 20.7 22 23.6
003C0732 2019-02-18 22:44:52 20.8 22 23.6
003C0732 2019-02-18 22:13:44 20.8 22 23.5
003C0732 2019-02-18 21:42:36 20.8 22 23.5
003C0732 2019-02-18 21:11:28 20.8 22 23.7
003C0732 2019-02-18 20:40:24 20.8 22 23.9
003C0732 2019-02-18 20:09:18 20.8 22 24
003C0732 2019-02-18 19:38:11 20.8 21 24.1
003C0732 2019-02-18 19:07:04 20.8 21 24.4
003C0732 2019-02-18 18:35:59 20.8 21 24.5
003C0732 2019-02-18 18:04:51 20.8 21 24.5
003C0732 2019-02-18 17:33:43 20.9 21 24.7
003C0732 2019-02-18 17:02:35 20.9 21 24.6
003C0732 2019-02-18 16:31:24 20.9 21 24.8
003C0732 2019-02-18 16:00:16 20.9 21 24.9
003C0732 2019-02-18 15:29:08 20.9 21 24.4
003C0732 2019-02-18 14:57:59 21 20 24
003C0732 2019-02-18 14:26:51 21 20 24.2
003C0732 2019-02-18 13:55:43 21 20 24.3
003C0732 2019-02-18 13:24:37 21.1 20 24.5
003C0732 2019-02-18 12:53:29 21.2 19 24.6
003C0732 2019-02-18 12:22:22 21.3 19 24.7
003C0732 2019-02-18 11:51:14 21.2 19 24.7
003C0732 2019-02-18 11:20:08 21.1 19 24.8
003C0732 2019-02-18 10:49:02 21.1 19 24.7
003C0732 2019-02-18 10:17:56 21 19 24.2
003C0732 2019-02-18 09:46:48 21 19 24.3
003C0732 2019-02-18 09:15:41 20.9 19 24.3
003C0732 2019-02-18 08:44:33 20.9 19 24.5
003C0732 2019-02-18 08:13:29 20.9 19 24.5
003C0732 2019-02-18 07:42:17 20.8 19 24.6
003C0732 2019-02-18 07:11:10 20.8 19 24.6
003C0732 2019-02-18 06:40:00 20.8 19 24.6
003C0732 2019-02-18 06:08:52 20.8 19 24.5
003C0732 2019-02-18 05:37:44 20.8 19 24.7
003C0732 2019-02-18 05:06:35 20.8 19 24.7
003C0732 2019-02-18 04:35:27 20.8 19 24.8
003C0732 2019-02-18 04:04:19 20.8 19 24.9
003C0732 2019-02-18 03:33:12 20.8 19 24.9
003C0732 2019-02-18 03:02:05 20.8 19 25
003C0732 2019-02-18 02:30:58 20.8 19 25
003C0732 2019-02-18 01:59:50 20.9 19 25.1
003C0732 2019-02-18 01:28:42 21 19 25.1
003C0732 2019-02-18 01:27:30 20.8 19 25.3
003C0732 2019-02-18 00:56:21 20.9 19 25.2
003C0732 2019-02-18 00:25:14 20.9 19 25.3
003C0732 2019-02-17 23:54:05 20.9 19 25.4
003C0732 2019-02-17 23:22:56 20.9 20 25.5
003C0732 2019-02-17 22:51:46 20.9 20 25.5
003C0732 2019-02-17 22:20:37 20.9 20 25.6
003C0732 2019-02-17 21:49:28 20.9 20 25.6
003C0732 2019-02-17 21:18:19 20.9 20 25.5
003C0732 2019-02-17 20:47:12 20.9 20 25.6
003C0732 2019-02-17 20:16:03 20.9 20 25.6
003C0732 2019-02-17 19:44:55 20.9 20 25.6
003C0732 2019-02-17 19:13:47 21 20 25.5
003C0732 2019-02-17 18:42:38 20.9 20 25.5
003C0732 2019-02-17 18:11:28 20.9 20 25.4
003C0732 2019-02-17 17:40:21 21 20 25.5
003C0732 2019-02-17 17:09:11 21 20 25.4
003C0732 2019-02-17 16:38:02 21 20 25.5
003C0732 2019-02-17 16:06:51 21 21 25.4
003C0732 2019-02-17 15:35:42 21 21 25.5
003C0732 2019-02-17 15:04:34 21 21 25.6
003C0732 2019-02-17 14:33:26 21 21 25.5
003C0732 2019-02-17 14:02:18 21 21 25.4
003C0732 2019-02-17 13:31:10 21 21 25.3
003C0732 2019-02-17 13:00:02 21 21 25.3
003C0732 2019-02-17 12:28:55 20.9 21 25.3
003C0732 2019-02-17 11:57:46 20.9 21 25.4
003C0732 2019-02-17 11:26:40 20.9 21 25.4
003C0732 2019-02-17 10:55:32 20.9 21 25.5
003C0732 2019-02-17 10:24:26 20.9 21 25.6
003C0732 2019-02-17 09:53:19 20.9 22 25.6
003C0732 2019-02-17 09:22:13 20.9 22 25.6
003C0732 2019-02-17 08:51:06 20.9 22 25.6
003C0732 2019-02-17 08:20:00 20.9 22 25.6
003C0732 2019-02-17 07:48:52 20.9 22 25.5
003C0732 2019-02-17 07:17:44 21 22 25.5
003C0732 2019-02-17 06:46:36 20.9 22 25.5
003C0732 2019-02-17 06:15:27 21 23 25.6
003C0732 2019-02-17 05:44:20 21 23 25.6
003C0732 2019-02-17 05:13:12 21 23 25.6
003C0732 2019-02-17 04:42:06 21 23 25.6
003C0732 2019-02-17 04:11:01 21 23 25.6
003C0732 2019-02-17 03:39:54 21 23 25.6
003C0732 2019-02-17 03:08:48 21 24 25.7
003C0732 2019-02-17 02:37:40 21 24 25.5
003C0732 2019-02-17 02:06:32 21 24 25.5
003C0732 2019-02-17 01:35:25 21 24 25.5
003C0732 2019-02-17 01:04:15 21 24 25.7
003C0732 2019-02-17 00:33:05 21 24 25.7
003C0732 2019-02-17 00:01:55 21.2 24 25.6
003C0732 2019-02-17 00:00:42 21 24 25.5
003C0732 2019-02-16 23:29:33 21 24 25.5
003C0732 2019-02-16 22:58:24 21 24 25.6
003C0732 2019-02-16 22:27:15 21.1 24 25.5
003C0732 2019-02-16 21:56:06 21.1 25 25.3
003C0732 2019-02-16 21:24:57 21.1 25 25.6
003C0732 2019-02-16 20:53:49 21.1 25 25.6
003C0732 2019-02-16 20:22:41 21.1 25 25.7
003C0732 2019-02-16 19:51:34 21.1 25 25.8
003C0732 2019-02-16 19:20:26 21.1 25 25.8
003C0732 2019-02-16 18:49:18 21.1 25 25.9
003C0732 2019-02-16 18:18:09 21.1 25 25.8
003C0732 2019-02-16 17:46:58 21.2 25 25.8
003C0732 2019-02-16 17:15:46 21.2 25 25.8
003C0732 2019-02-16 16:44:35 21.2 25 25.8
003C0732 2019-02-16 16:13:27 21.2 25 25.9
003C0732 2019-02-16 15:42:18 21.2 25 25.9
003C0732 2019-02-16 15:11:09 21.2 25 25.9
003C0732 2019-02-16 14:40:00 21.2 25 26
003C0732 2019-02-16 14:08:51 21.1 25 26.1
003C0732 2019-02-16 13:37:41 21.1 25 26.4
003C0732 2019-02-16 13:06:32 21.1 25 26.3
003C0732 2019-02-16 12:35:22 21.1 25 26.3
003C0732 2019-02-16 12:04:13 21.1 25 26.2
003C0732 2019-02-16 11:33:05 21 25 26.2
003C0732 2019-02-16 11:01:57 21 25 26.3
003C0732 2019-02-16 10:30:49 21 25 26.5
003C0732 2019-02-16 09:59:40 21 25 26.5
003C0732 2019-02-16 09:28:31 21 25 26.5
003C0732 2019-02-16 08:57:22 21 25 26.5
003C0732 2019-02-16 08:26:14 21 25 26.2
003C0732 2019-02-16 07:55:05 21.1 25 26.2
003C0732 2019-02-16 07:23:55 21.1 25 26.2
003C0732 2019-02-16 06:52:46 21.1 25 26.1
003C0732 2019-02-16 06:21:35 21.1 25 26.1
003C0732 2019-02-16 05:50:27 21.1 25 26.2
003C0732 2019-02-16 05:19:18 21.1 25 26.2
003C0732 2019-02-16 04:48:07 21.1 25 26.2
003C0732 2019-02-16 04:16:58 21.1 25 26.2
003C0732 2019-02-16 03:45:49 21.1 25 26.2
003C0732 2019-02-16 03:14:41 21.1 25 26.1
003C0732 2019-02-16 02:43:32 21.1 25 25.9
003C0732 2019-02-16 02:12:22 21.1 25 25.9
003C0732 2019-02-16 01:41:13 21.1 25 25.7
003C0732 2019-02-16 01:10:02 21.2 25 26
003C0732 2019-02-16 00:38:51 21.2 25 25.6
003C0732 2019-02-16 00:07:41 21.2 25 25.6
003C0732 2019-02-15 23:36:31 21.3 25 25.5
003C0732 2019-02-15 23:05:21 21.3 25 25.5
003C0732 2019-02-15 22:34:11 21.5 25 25.4
003C0732 2019-02-15 22:32:58 21.3 25 25.4
003C0732 2019-02-15 22:01:49 21.4 25 25
003C0732 2019-02-15 21:30:38 21.4 25 24.9
003C0732 2019-02-15 20:59:27 21.4 25 24.9
003C0732 2019-02-15 20:28:17 21.5 25 24.8
003C0732 2019-02-15 19:57:08 21.5 25 24.8
003C0732 2019-02-15 19:26:00 21.5 25 24.7
003C0732 2019-02-15 18:54:52 21.6 25 24.7
003C0732 2019-02-15 18:23:44 21.6 24 24.7
003C0732 2019-02-15 17:52:36 21.6 24 24.7
003C0732 2019-02-15 17:21:28 21.6 24 24.3
003C0732 2019-02-15 16:50:20 21.6 24 24.4
003C0732 2019-02-15 16:19:12 21.5 24 24.5
003C0732 2019-02-15 15:48:02 21.5 24 24.4
003C0732 2019-02-15 15:16:52 21.5 24 24.5
003C0732 2019-02-15 14:45:43 21.5 24 24.7
003C0732 2019-02-15 14:14:33 21.5 24 24.7
003C0732 2019-02-15 13:43:23 21.5 24 24.8
003C0732 2019-02-15 13:12:12 21.4 24 24.7
003C0732 2019-02-15 12:41:02 21.4 24 24.5
003C0732 2019-02-15 12:09:52 21.4 24 24.6
003C0732 2019-02-15 11:38:42 21.4 24 24.5
003C0732 2019-02-15 11:07:31 21.3 25 24.5
003C0732 2019-02-15 10:36:21 21.3 25 24.7
003C0732 2019-02-15 10:05:12 21.3 25 24.7
003C0732 2019-02-15 09:34:02 21.3 25 24.6
003C0732 2019-02-15 09:02:53 21.2 25 24.7
003C0732 2019-02-15 08:31:43 21.2 25 24.7
003C0732 2019-02-15 08:00:31 21.2 25 24.7
003C0732 2019-02-15 07:29:20 21.2 25 25
003C0732 2019-02-15 06:58:07 21.2 25 25
003C0732 2019-02-15 06:26:57 21.2 25 25
003C0732 2019-02-15 05:55:47 21.2 25 25.1
003C0732 2019-02-15 05:24:38 21.2 25 25.2
003C0732 2019-02-15 04:53:28 21.2 25 25.3
003C0732 2019-02-15 04:22:19 21.2 25 25.2
003C0732 2019-02-15 03:51:12 21.3 25 25.1
003C0732 2019-02-15 03:20:01 21.2 25 24.8
003C0732 2019-02-15 02:48:51 21.2 25 24.7
003C0732 2019-02-15 02:17:41 21.3 25 24.6
003C0732 2019-02-15 01:46:31 21.3 25 24.5
003C0732 2019-02-15 01:15:19 21.3 25 24.4
003C0732 2019-02-15 00:44:07 21.3 25 24.3
003C0732 2019-02-15 00:12:56 21.3 25 24.3
003C0732 2019-02-14 23:41:45 21.3 25 23.9
003C0732 2019-02-14 23:10:33 21.4 25 23.7
003C0732 2019-02-14 22:39:22 21.4 24 23.6
003C0732 2019-02-14 22:08:12 21.4 24 23.5
003C0732 2019-02-14 21:37:01 21.4 24 23.3
003C0732 2019-02-14 21:05:50 21.7 24 23.2
003C0732 2019-02-14 21:04:37 21.5 24 23.2
003C0732 2019-02-14 20:33:26 21.5 24 22.9
003C0732 2019-02-14 20:02:16 21.5 24 22.9
003C0732 2019-02-14 19:31:06 21.6 24 22.8
003C0732 2019-02-14 18:59:54 21.6 24 22.4
003C0732 2019-02-14 18:28:43 21.7 24 22.5
003C0732 2019-02-14 17:57:32 21.7 24 22.4
003C0732 2019-02-14 17:26:23 21.7 24 22.1
003C0732 2019-02-14 16:55:12 21.7 24 21.8
003C0732 2019-02-14 16:24:02 21.7 24 21.5
003C0732 2019-02-14 15:52:53 21.7 24 21.6
003C0732 2019-02-14 15:21:45 21.6 23 21.9
003C0732 2019-02-14 14:50:33 21.6 24 21.8
003C0732 2019-02-14 14:19:22 21.6 23 22
003C0732 2019-02-14 13:48:11 21.5 23 22.1
003C0732 2019-02-14 13:17:00 21.5 23 22
003C0732 2019-02-14 12:45:50 21.4 22 22.1
003C0732 2019-02-14 12:14:38 21.3 22 22.1
003C0732 2019-02-14 11:43:26 21.2 23 22.3
003C0732 2019-02-14 11:12:15 21.1 23 22.4
003C0732 2019-02-14 10:41:06 21 23 23.3
003C0732 2019-02-14 10:09:56 20.9 24 23.5
003C0732 2019-02-14 09:38:46 20.9 23 23.4
003C0732 2019-02-14 09:07:39 20.9 23 23.5
003C0732 2019-02-14 08:36:30 20.8 23 23.6
003C0732 2019-02-14 08:05:21 20.8 24 23.5
003C0732 2019-02-14 07:34:12 20.9 24 23.6
003C0732 2019-02-14 07:03:01 20.8 25 23.6
003C0732 2019-02-14 06:31:53 20.9 25 23.4
003C0732 2019-02-14 06:00:44 20.9 25 23.3
003C0732 2019-02-14 05:29:35 20.9 25 23
003C0732 2019-02-14 04:58:27 20.9 25 22.8
003C0732 2019-02-14 04:27:20 20.9 25 22.7
003C0732 2019-02-14 03:56:12 20.9 25 22.6
003C0732 2019-02-14 03:25:04 20.9 25 22.5
003C0732 2019-02-14 02:53:55 20.9 25 22.5
003C0732 2019-02-14 02:22:48 20.9 25 23.1
003C0732 2019-02-14 01:51:39 20.9 25 23.1
003C0732 2019-02-14 01:20:28 20.9 25 23.1
003C0732 2019-02-14 00:49:16 20.9 24 22.9
003C0732 2019-02-14 00:18:06 21 24 22.9
003C0732 2019-02-13 23:46:55 21 24 23.6
003C0732 2019-02-13 23:15:43 21 24 23.5
003C0732 2019-02-13 22:44:33 21.1 24 23.4
003C0732 2019-02-13 22:13:23 21.1 24 23.3
003C0732 2019-02-13 21:42:11 21.2 24 22.4
003C0732 2019-02-13 21:10:59 21.2 24 22.3
003C0732 2019-02-13 20:39:48 21.3 24 22.4
003C0732 2019-02-13 20:08:38 21.3 25 22.2
003C0732 2019-02-13 19:37:30 21.6 24 22.2
003C0732 2019-02-13 19:36:17 21.4 25 22.2
003C0732 2019-02-13 19:05:08 21.4 25 22.2
003C0732 2019-02-13 18:33:59 21.5 25 22.1
003C0732 2019-02-13 18:02:52 21.5 26 22.1
003C0732 2019-02-13 17:31:43 21.5 26 22.3
003C0732 2019-02-13 17:00:33 21.4 26 22.5
003C0732 2019-02-13 16:29:25 21.3 26 22.7
003C0732 2019-02-13 15:58:16 21.3 25 22.7
003C0732 2019-02-13 15:27:05 21.2 26 22.7
003C0732 2019-02-13 14:55:55 21.1 25 22.9
003C0732 2019-02-13 14:24:46 21 25 22.9
003C0732 2019-02-13 13:53:36 21.1 24 22
003C0732 2019-02-13 13:22:27 21.2 24 22.1
003C0732 2019-02-13 12:51:17 21.2 25 22
003C0732 2019-02-13 12:20:08 21.1 24 22.2
003C0732 2019-02-13 11:48:58 21.1 25 22.4
003C0732 2019-02-13 11:17:51 21 25 21.4
003C0732 2019-02-13 10:46:41 20.9 25 21.4
003C0732 2019-02-13 10:15:31 20.8 23 21.4
003C0732 2019-02-13 09:44:21 20.9 23 21.4
003C0732 2019-02-13 09:13:09 20.9 22 21.6
003C0732 2019-02-13 08:41:58 20.8 21 21.5
003C0732 2019-02-13 08:10:46 20.8 20 21.6
003C0732 2019-02-13 07:39:36 20.8 20 21.5
003C0732 2019-02-13 07:08:27 20.8 18 21.5
003C0732 2019-02-13 06:37:17 20.8 18 21.3
003C0732 2019-02-13 06:06:07 20.8 18 21.4
003C0732 2019-02-13 05:34:59 20.9 18 21.3
003C0732 2019-02-13 05:03:49 20.8 18 21.2
003C0732 2019-02-13 04:32:39 20.9 18 21.2
003C0732 2019-02-13 04:01:31 20.9 18 22.1
003C0732 2019-02-13 03:30:23 20.9 18 21.9
003C0732 2019-02-13 02:59:13 20.9 18 22
003C0732 2019-02-13 02:28:04 20.9 18 22.1
003C0732 2019-02-13 01:56:57 20.9 18 21.9
003C0732 2019-02-13 01:25:46 20.9 17 21.9
003C0732 2019-02-13 00:54:36 21 17 22.3
003C0732 2019-02-13 00:23:27 21 18 22.3
003C0732 2019-02-12 23:52:17 21 19 22.3
003C0732 2019-02-12 23:21:08 21 18 22.2
003C0732 2019-02-12 22:50:00 21 18 22.3
003C0732 2019-02-12 22:18:53 21.1 18 22.4
003C0732 2019-02-12 21:47:48 21.1 19 22.7
003C0732 2019-02-12 21:16:38 21.2 20 22.9
003C0732 2019-02-12 20:45:28 21.2 20 22.9
003C0732 2019-02-12 20:14:19 21.3 20 22.9
003C0732 2019-02-12 19:43:10 21.3 20 22.9
003C0732 2019-02-12 19:11:59 21.2 20 23
003C0732 2019-02-12 18:40:48 21.2 19 22.9
003C0732 2019-02-12 18:09:38 21.4 18 22.9
003C0732 2019-02-12 18:08:25 21.2 18 23.1
003C0732 2019-02-12 17:37:15 21.2 18 23.1
003C0732 2019-02-12 17:06:06 21.3 18 23.3
003C0732 2019-02-12 16:34:55 21.4 18 23.3
003C0732 2019-02-12 16:03:48 21.5 18 23.2
003C0732 2019-02-12 15:32:39 21.5 18 22.5
003C0732 2019-02-12 15:01:31 21.4 18 22.4
003C0732 2019-02-12 14:30:24 21.3 18 22.4
003C0732 2019-02-12 13:59:16 21.2 18 22.5
003C0732 2019-02-12 13:28:09 21.2 18 22.5
003C0732 2019-02-12 12:57:00 21.3 17 22.4
003C0732 2019-02-12 12:25:53 21.3 18 22.1
003C0732 2019-02-12 11:54:46 21.3 19 22.2
003C0732 2019-02-12 11:23:39 21.2 19 22.1
003C0732 2019-02-12 10:52:32 21.2 20 22.1
003C0732 2019-02-12 10:21:24 21.1 20 21.8
003C0732 2019-02-12 09:50:17 21 21 21.6
003C0732 2019-02-12 09:19:10 21 22 21.2
003C0732 2019-02-12 08:48:02 20.9 23 20.8
003C0732 2019-02-12 08:16:54 20.9 22 20.8
003C0732 2019-02-12 07:45:46 20.8 23 20.8
003C0732 2019-02-12 07:14:38 20.9 25 20.7
003C0732 2019-02-12 06:43:31 20.9 25 21.8
003C0732 2019-02-12 06:12:24 20.9 25 21.9
003C0732 2019-02-12 05:41:18 20.9 26 21.8
003C0732 2019-02-12 05:10:11 20.8 26 21.7
003C0732 2019-02-12 04:39:05 20.9 26 21.6
003C0732 2019-02-12 04:07:59 20.9 26 21.5
003C0732 2019-02-12 03:36:52 20.9 26 21.6
003C0732 2019-02-12 03:05:45 20.9 26 21.8
003C0732 2019-02-12 02:34:38 20.9 26 21.6
003C0732 2019-02-12 02:03:30 20.9 26 21.7
003C0732 2019-02-12 01:32:21 21 26 21.8
003C0732 2019-02-12 01:01:14 21 26 21.7
003C0732 2019-02-12 00:30:06 21 26 21.8
003C0732 2019-02-11 23:58:57 21.1 26 22
003C0732 2019-02-11 23:27:50 21.1 26 22.1
003C0732 2019-02-11 22:56:41 21.2 26 22.1
003C0732 2019-02-11 22:25:32 21.2 26 22.2
003C0732 2019-02-11 21:54:24 21.3 26 22.4
003C0732 2019-02-11 21:23:15 21.3 27 22.8
003C0732 2019-02-11 20:52:06 21.4 26 23
003C0732 2019-02-11 20:20:57 21.5 26 23.4
003C0732 2019-02-11 19:49:49 21.6 26 23.9
003C0732 2019-02-11 19:18:40 21.7 26 24.6
003C0732 2019-02-11 18:47:32 21.9 26 24.8
003C0732 2019-02-11 18:16:23 22 26 26
003C0732 2019-02-11 17:45:12 22.2 27 19.6
003C0732 2019-02-11 17:14:02 22.2 27 18.4
003C0732 2019-02-11 16:42:53 22 30 0